,,Stat5,,Stat1,,Stat2,,Stat3,,Stat4,,Wind1,,Wind1,
time,status,PA1M_AVG,status,PR1M_SUM,status,RH1M_AVG,status,SR1M_AVG,status,TA1M_AVG,status,W1dAve1m,status,W1sAve1m,
2000-11-20, 00:00:01,VALID,915.671,VALID,0,VALID,99.7434,VALID,-0.0679233,VALID,20.382,VALID,117,VALID,0,
2000-11-20, 00:01:00,VALID,915.654,VALID,0,VALID,99.7383,VALID,-0.0169808,VALID,20.3855,VALID,122,VALID,0,
2000-11-20, 00:02:00,VALID,915.657,VALID,0,VALID,99.7358,VALID,-0.0849042,VALID,20.3785,VALID,121,VALID,0,
2000-11-20, 00:03:00,VALID,915.66,VALID,0,VALID,99.7269,VALID,-0.0509425,VALID,20.3847,VALID,131,VALID,0,
2000-11-20, 00:04:00,VALID,915.644,VALID,0,VALID,99.7192,VALID,-0.0849042,VALID,20.3693,VALID,157,VALID,0,
2000-11-20, 00:05:00,VALID,915.644,VALID,0,VALID,99.7167,VALID,-0.0679233,VALID,20.3559,VALID,156,VALID,0,
2000-11-20, 00:06:00,VALID,915.637,VALID,0,VALID,99.6925,VALID,-0.0509425,VALID,20.343,VALID,200,VALID,0.511814,
2000-11-20, 00:07:00,VALID,915.614,VALID,0,VALID,99.69,VALID,-0.0169808,VALID,20.33,VALID,102,VALID,0.681743,
2000-11-20, 00:08:00,VALID,915.613,VALID,0,VALID,99.7027,VALID,-0.0339617,VALID,20.343,VALID,104,VALID,0.408923,
2000-11-20, 00:09:00,VALID,915.613,VALID,0,VALID,99.7192,VALID,-0.0169808,VALID,20.3427,VALID,106,VALID,0.295508,
2000-11-20, 00:10:00,VALID,915.603,VALID,0,VALID,99.704,VALID,0,VALID,20.3564,VALID,91,VALID,0.720395,
2000-11-20, 00:11:00,VALID,915.603,VALID,0,VALID,99.69,VALID,-0.101885,VALID,20.3373,VALID,72,VALID,0.349095,
2000-11-20, 00:12:00,VALID,915.596,VALID,0,VALID,99.7027,VALID,-0.0679233,VALID,20.3529,VALID,99,VALID,0.939509,
2000-11-20, 00:13:00,VALID,915.596,VALID,0,VALID,99.7052,VALID,-0.0679233,VALID,20.3631,VALID,104,VALID,0.87717,
2000-11-20, 00:14:00,VALID,915.593,VALID,0,VALID,99.7154,VALID,-0.0169808,VALID,20.3629,VALID,94,VALID,0.441189,
2000-11-20, 00:15:00,VALID,915.586,VALID,0,VALID,99.6824,VALID,-0.0509425,VALID,20.3107,VALID,77,VALID,0.540015,
2000-11-20, 00:16:00,VALID,915.57,VALID,0,VALID,99.6836,VALID,-0.0169808,VALID,20.3204,VALID,106,VALID,0.333615,
2000-11-20, 00:17:00,VALID,915.553,VALID,0,VALID,99.69,VALID,-0.0339617,VALID,20.3104,VALID,88,VALID,0.0139803,
2000-11-20, 00:18:00,VALID,915.538,VALID,0,VALID,99.6938,VALID,-0.0339617,VALID,20.3139,VALID,88,VALID,0,
2000-11-20, 00:19:00,VALID,915.515,VALID,0,VALID,99.69,VALID,-0.0339617,VALID,20.3141,VALID,88,VALID,0,
2000-11-20, 00:20:00,VALID,915.498,VALID,0,VALID,99.69,VALID,-0.0679233,VALID,20.3139,VALID,101,VALID,0,
2000-11-20, 00:21:00,VALID,915.479,VALID,0,VALID,99.6709,VALID,-0.0509425,VALID,20.3015,VALID,138,VALID,0,
2000-11-20, 00:22:00,VALID,915.479,VALID,0,VALID,99.6722,VALID,-0.0679233,VALID,20.3015,VALID,138,VALID,0,
2000-11-20, 00:23:00,VALID,915.48,VALID,0,VALID,99.6773,VALID,-0.0509425,VALID,20.3141,VALID,138,VALID,0,
2000-11-20, 00:24:00,VALID,915.472,VALID,0,VALID,99.6785,VALID,-0.0679233,VALID,20.3209,VALID,138,VALID,0,
2000-11-20, 00:25:00,VALID,915.471,VALID,0,VALID,99.6798,VALID,-0.0339617,VALID,20.3069,VALID,138,VALID,0,
2000-11-20, 00:26:00,VALID,915.473,VALID,0,VALID,99.6785,VALID,-0.0169808,VALID,20.333,VALID,138,VALID,0,
2000-11-20, 00:27:00,VALID,915.478,VALID,0,VALID,99.6696,VALID,-0.0169808,VALID,20.3012,VALID,138,VALID,0,
2000-11-20, 00:28:00,VALID,915.485,VALID,0,VALID,99.6556,VALID,-0.0509425,VALID,20.2719,VALID,138,VALID,0,
2000-11-20, 00:29:00,VALID,915.5,VALID,0,VALID,99.6531,VALID,-0.0679233,VALID,20.2719,VALID,138,VALID,0,
2000-11-20, 00:30:00,VALID,915.52,VALID,0,VALID,99.6582,VALID,-0.0679233,VALID,20.2619,VALID,138,VALID,0,
2000-11-20, 00:31:00,VALID,915.521,VALID,0,VALID,99.662,VALID,0,VALID,20.2719,VALID,138,VALID,0,
2000-11-20, 00:32:00,VALID,915.536,VALID,0,VALID,99.6684,VALID,-0.0339617,VALID,20.2783,VALID,138,VALID,0,
2000-11-20, 00:33:00,VALID,915.528,VALID,0,VALID,99.6773,VALID,-0.0339617,VALID,20.3112,VALID,138,VALID,0,
2000-11-20, 00:34:00,VALID,915.532,VALID,0,VALID,99.6887,VALID,0,VALID,20.3241,VALID,114,VALID,0,
2000-11-20, 00:35:00,VALID,915.535,VALID,0,VALID,99.6976,VALID,-0.0169808,VALID,20.3397,VALID,112,VALID,0,
2000-11-20, 00:36:00,VALID,915.521,VALID,0,VALID,99.7002,VALID,-0.0339617,VALID,20.3659,VALID,112,VALID,0,
2000-11-20, 00:37:00,VALID,915.528,VALID,0,VALID,99.7052,VALID,0,VALID,20.3753,VALID,109,VALID,0.178248,
2000-11-20, 00:38:00,VALID,915.546,VALID,0,VALID,99.6887,VALID,-0.0339617,VALID,20.3659,VALID,104,VALID,0.480674,
2000-11-20, 00:39:00,VALID,915.542,VALID,0,VALID,99.6569,VALID,-0.101885,VALID,20.3338,VALID,99,VALID,0.532812,
2000-11-20, 00:40:00,VALID,915.548,VALID,0,VALID,99.648,VALID,-0.0169808,VALID,20.3107,VALID,105,VALID,0.473067,
2000-11-20, 00:41:00,VALID,915.546,VALID,0,VALID,99.6556,VALID,-0.0679233,VALID,20.3306,VALID,106,VALID,0.287418,
2000-11-20, 00:42:00,VALID,915.532,VALID,0,VALID,99.662,VALID,-0.0509425,VALID,20.3432,VALID,102,VALID,0,
2000-11-20, 00:43:00,VALID,915.532,VALID,0,VALID,99.6569,VALID,-0.0679233,VALID,20.3432,VALID,103,VALID,0,
2000-11-20, 00:44:00,VALID,915.531,VALID,0,VALID,99.6455,VALID,-0.0509425,VALID,20.3373,VALID,108,VALID,0,
2000-11-20, 00:45:00,VALID,915.516,VALID,0,VALID,99.6455,VALID,-0.0339617,VALID,20.3204,VALID,108,VALID,0,
2000-11-20, 00:46:00,VALID,915.512,VALID,0,VALID,99.6328,VALID,0,VALID,20.3303,VALID,106,VALID,0,
2000-11-20, 00:47:00,VALID,915.497,VALID,0,VALID,99.6302,VALID,-0.0679233,VALID,20.3308,VALID,105,VALID,0,
2000-11-20, 00:48:00,VALID,915.498,VALID,0,VALID,99.634,VALID,-0.0339617,VALID,20.3268,VALID,97,VALID,0,
2000-11-20, 00:49:00,VALID,915.487,VALID,0,VALID,99.6277,VALID,-0.0169808,VALID,20.3263,VALID,95,VALID,0,
2000-11-20, 00:50:00,VALID,915.476,VALID,0,VALID,99.6366,VALID,0,VALID,20.336,VALID,94,VALID,0,
2000-11-20, 00:51:00,VALID,915.469,VALID,0,VALID,99.5857,VALID,-0.0339617,VALID,20.2808,VALID,85,VALID,0,
2000-11-20, 00:52:00,VALID,915.465,VALID,0,VALID,99.5781,VALID,0,VALID,20.2749,VALID,80,VALID,0,
2000-11-20, 00:53:00,VALID,915.442,VALID,0,VALID,99.5565,VALID,0,VALID,20.2485,VALID,72,VALID,0,
2000-11-20, 00:54:00,VALID,915.43,VALID,0,VALID,99.531,VALID,-0.0339617,VALID,20.2199,VALID,57,VALID,0,
2000-11-20, 00:55:00,VALID,915.394,VALID,0,VALID,99.5298,VALID,0,VALID,20.1973,VALID,70,VALID,0,
2000-11-20, 00:56:00,VALID,915.371,VALID,0,VALID,99.5298,VALID,0.0169808,VALID,20.1906,VALID,66,VALID,0,
2000-11-20, 00:57:00,VALID,915.35,VALID,0,VALID,99.5132,VALID,0,VALID,20.1642,VALID,70,VALID,0,
2000-11-20, 00:58:00,VALID,915.33,VALID,0,VALID,99.5259,VALID,0,VALID,20.1645,VALID,85,VALID,0,
2000-11-20, 00:59:00,VALID,915.307,VALID,0,VALID,99.5348,VALID,0,VALID,20.1605,VALID,87,VALID,0,
2000-11-20, 01:00:00,VALID,915.313,VALID,0,VALID,99.5437,VALID,-0.0169808,VALID,20.1841,VALID,88,VALID,0,
2000-11-20, 01:01:00,VALID,915.319,VALID,0,VALID,99.5476,VALID,0,VALID,20.1675,VALID,94,VALID,0,
2000-11-20, 01:02:00,VALID,915.317,VALID,0,VALID,99.5565,VALID,0,VALID,20.168,VALID,84,VALID,0,
2000-11-20, 01:03:00,VALID,915.319,VALID,0,VALID,99.5476,VALID,0,VALID,20.1615,VALID,101,VALID,0,
2000-11-20, 01:04:00,VALID,915.303,VALID,0,VALID,99.5628,VALID,-0.0169808,VALID,20.1749,VALID,107,VALID,0,
2000-11-20, 01:05:00,VALID,915.296,VALID,0,VALID,99.5666,VALID,-0.0169808,VALID,20.1844,VALID,117,VALID,0,
2000-11-20, 01:06:00,VALID,915.267,VALID,0,VALID,99.5819,VALID,0,VALID,20.1941,VALID,116,VALID,0,
2000-11-20, 01:07:00,VALID,915.245,VALID,0,VALID,99.5641,VALID,-0.0339617,VALID,20.1941,VALID,116,VALID,0,
2000-11-20, 01:08:00,VALID,915.238,VALID,0,VALID,99.5577,VALID,-0.0339617,VALID,20.2008,VALID,120,VALID,0,
2000-11-20, 01:09:00,VALID,915.218,VALID,0,VALID,99.5501,VALID,0,VALID,20.1938,VALID,121,VALID,0,
2000-11-20, 01:10:00,VALID,915.187,VALID,0,VALID,99.5094,VALID,-0.0339617,VALID,20.1777,VALID,129,VALID,0,
2000-11-20, 01:11:00,VALID,915.167,VALID,0,VALID,99.4878,VALID,-0.0339617,VALID,20.1652,VALID,175,VALID,0,
2000-11-20, 01:12:00,VALID,915.138,VALID,0,VALID,99.4916,VALID,-0.0339617,VALID,20.1518,VALID,209,VALID,0,
2000-11-20, 01:13:00,VALID,915.126,VALID,0,VALID,99.4764,VALID,-0.0339617,VALID,20.1359,VALID,208,VALID,0,
2000-11-20, 01:14:00,VALID,915.11,VALID,0,VALID,99.4878,VALID,-0.0169808,VALID,20.1294,VALID,205,VALID,0,
2000-11-20, 01:15:00,VALID,915.087,VALID,0,VALID,99.4853,VALID,-0.0509425,VALID,20.113,VALID,197,VALID,0,
2000-11-20, 01:16:00,VALID,915.075,VALID,0,VALID,99.4916,VALID,-0.0339617,VALID,20.1163,VALID,192,VALID,0,
2000-11-20, 01:17:00,VALID,915.036,VALID,0,VALID,99.4903,VALID,-0.0169808,VALID,20.1066,VALID,189,VALID,0,
2000-11-20, 01:18:00,VALID,915.027,VALID,0,VALID,99.5031,VALID,-0.0509425,VALID,20.1036,VALID,199,VALID,0,
2000-11-20, 01:19:01,VALID,914.986,VALID,0,VALID,99.5005,VALID,0,VALID,20.0966,VALID,217,VALID,0,
2000-11-20, 01:20:00,VALID,914.961,VALID,0,VALID,99.5145,VALID,-0.0169808,VALID,20.1103,VALID,203,VALID,0,
2000-11-20, 01:21:00,VALID,914.929,VALID,0,VALID,99.4891,VALID,-0.0169808,VALID,20.0934,VALID,182,VALID,0,
2000-11-20, 01:22:00,VALID,914.913,VALID,0,VALID,99.4649,VALID,-0.0339617,VALID,20.0877,VALID,185,VALID,0,
2000-11-20, 01:23:00,VALID,914.898,VALID,0,VALID,99.456,VALID,-0.0339617,VALID,20.0683,VALID,184,VALID,0,
2000-11-20, 01:24:00,VALID,914.894,VALID,0,VALID,99.4433,VALID,0,VALID,20.0651,VALID,179,VALID,0,
2000-11-20, 01:25:00,VALID,914.874,VALID,0,VALID,99.4624,VALID,-0.0169808,VALID,20.0713,VALID,178,VALID,0,
2000-11-20, 01:26:00,VALID,914.851,VALID,0,VALID,99.4649,VALID,-0.0339617,VALID,20.0715,VALID,168,VALID,0,
2000-11-20, 01:27:00,VALID,914.835,VALID,0,VALID,99.4649,VALID,-0.0509425,VALID,20.075,VALID,176,VALID,0,
2000-11-20, 01:28:00,VALID,914.802,VALID,0,VALID,99.4649,VALID,-0.0169808,VALID,20.0581,VALID,179,VALID,0,
2000-11-20, 01:29:00,VALID,914.778,VALID,0,VALID,99.4585,VALID,0,VALID,20.0715,VALID,182,VALID,0,
2000-11-20, 01:30:00,VALID,914.752,VALID,0,VALID,99.4535,VALID,-0.0509425,VALID,20.0651,VALID,188,VALID,0,
2000-11-20, 01:31:00,VALID,914.734,VALID,0,VALID,99.4547,VALID,-0.0509425,VALID,20.075,VALID,188,VALID,0,
2000-11-20, 01:32:00,VALID,914.714,VALID,0,VALID,99.442,VALID,-0.0169808,VALID,20.0618,VALID,188,VALID,0,
2000-11-20, 01:33:00,VALID,914.7,VALID,0,VALID,99.4446,VALID,0.0509425,VALID,20.0574,VALID,209,VALID,0,
2000-11-20, 01:34:00,VALID,914.674,VALID,0,VALID,99.4293,VALID,0.101885,VALID,20.0375,VALID,278,VALID,0,
2000-11-20, 01:35:00,VALID,914.663,VALID,0,VALID,99.4064,VALID,0.0849042,VALID,20.0315,VALID,284,VALID,0,
2000-11-20, 01:36:00,VALID,914.657,VALID,0,VALID,99.3975,VALID,0.0849042,VALID,20.0151,VALID,284,VALID,0,
2000-11-20, 01:37:00,VALID,914.641,VALID,0,VALID,99.4039,VALID,0.0339617,VALID,20.0022,VALID,284,VALID,0,
2000-11-20, 01:38:00,VALID,914.623,VALID,0,VALID,99.4064,VALID,0.0339617,VALID,19.9992,VALID,284,VALID,0,
2000-11-20, 01:39:00,VALID,914.603,VALID,0,VALID,99.4255,VALID,0.0339617,VALID,19.9927,VALID,284,VALID,0,
2000-11-20, 01:40:00,VALID,914.592,VALID,0,VALID,99.4217,VALID,0.101885,VALID,19.983,VALID,284,VALID,0,
2000-11-20, 01:41:00,VALID,914.57,VALID,0,VALID,99.4293,VALID,0.0679233,VALID,19.9696,VALID,272,VALID,0,
2000-11-20, 01:42:00,VALID,914.549,VALID,0,VALID,99.4204,VALID,0.0509425,VALID,19.9701,VALID,259,VALID,0,
2000-11-20, 01:43:00,VALID,914.532,VALID,0,VALID,99.4331,VALID,0.0339617,VALID,19.9669,VALID,239,VALID,0,
2000-11-20, 01:44:00,VALID,914.51,VALID,0,VALID,99.4433,VALID,0.0509425,VALID,19.9637,VALID,222,VALID,0,
2000-11-20, 01:45:01,VALID,914.499,VALID,0,VALID,99.4611,VALID,0.0509425,VALID,19.9634,VALID,222,VALID,0,
2000-11-20, 01:46:00,VALID,914.497,VALID,0,VALID,99.4624,VALID,0.0509425,VALID,19.9666,VALID,222,VALID,0,
2000-11-20, 01:47:01,VALID,914.502,VALID,0,VALID,99.4611,VALID,0.0849042,VALID,19.954,VALID,219,VALID,0,
2000-11-20, 01:48:00,VALID,914.495,VALID,0,VALID,99.4713,VALID,0.0169808,VALID,19.941,VALID,217,VALID,0,
2000-11-20, 01:49:01,VALID,914.483,VALID,0,VALID,99.4751,VALID,0.0169808,VALID,19.9458,VALID,224,VALID,0,
2000-11-20, 01:50:01,VALID,914.475,VALID,0,VALID,99.4738,VALID,-0.0169808,VALID,19.9455,VALID,221,VALID,0,
2000-11-20, 01:51:00,VALID,914.46,VALID,0,VALID,99.4624,VALID,0.0169808,VALID,19.9259,VALID,216,VALID,0,
2000-11-20, 01:52:01,VALID,914.448,VALID,0,VALID,99.4789,VALID,0,VALID,19.9192,VALID,216,VALID,0,
2000-11-20, 01:53:00,VALID,914.418,VALID,0,VALID,99.4827,VALID,0,VALID,19.9102,VALID,216,VALID,0,
2000-11-20, 01:54:00,VALID,914.412,VALID,0,VALID,99.484,VALID,0,VALID,19.8938,VALID,216,VALID,0,
2000-11-20, 01:55:00,VALID,914.407,VALID,0,VALID,99.4853,VALID,0,VALID,19.8874,VALID,216,VALID,0,
2000-11-20, 01:56:00,VALID,914.395,VALID,0,VALID,99.4764,VALID,0,VALID,19.8712,VALID,216,VALID,0,
2000-11-20, 01:57:01,VALID,914.404,VALID,0,VALID,99.47,VALID,0,VALID,19.8481,VALID,216,VALID,0,
2000-11-20, 01:58:00,VALID,914.375,VALID,0,VALID,99.4802,VALID,0,VALID,19.8486,VALID,212,VALID,0,
2000-11-20, 01:59:00,VALID,914.373,VALID,0,VALID,99.517,VALID,0,VALID,19.8478,VALID,203,VALID,0,
2000-11-20, 02:00:00,VALID,914.355,VALID,0,VALID,99.5069,VALID,0.0169808,VALID,19.8347,VALID,204,VALID,0,
2000-11-20, 02:01:00,VALID,914.347,VALID,0,VALID,99.5285,VALID,0,VALID,19.8319,VALID,215,VALID,0,
2000-11-20, 02:02:01,VALID,914.337,VALID,0,VALID,99.5527,VALID,-0.0169808,VALID,19.8389,VALID,221,VALID,0,
2000-11-20, 02:03:01,VALID,914.32,VALID,0,VALID,99.5476,VALID,0,VALID,19.8322,VALID,224,VALID,0,
2000-11-20, 02:04:00,VALID,914.317,VALID,0,VALID,99.573,VALID,-0.0169808,VALID,19.8292,VALID,232,VALID,0,
2000-11-20, 02:05:00,VALID,914.304,VALID,0,VALID,99.6061,VALID,0.0169808,VALID,19.8386,VALID,230,VALID,0,
2000-11-20, 02:06:00,VALID,914.282,VALID,0,VALID,99.6048,VALID,0,VALID,19.8389,VALID,227,VALID,0.213742,
2000-11-20, 02:07:00,VALID,914.286,VALID,0,VALID,99.6111,VALID,-0.0169808,VALID,19.8352,VALID,221,VALID,0.297492,
2000-11-20, 02:08:00,VALID,914.273,VALID,0,VALID,99.6022,VALID,0.0169808,VALID,19.8322,VALID,240,VALID,0.275288,
2000-11-20, 02:09:00,VALID,914.261,VALID,0,VALID,99.5933,VALID,0,VALID,19.826,VALID,244,VALID,0.15957,
2000-11-20, 02:10:00,VALID,914.257,VALID,0,VALID,99.6239,VALID,0,VALID,19.8227,VALID,239,VALID,0.340872,
2000-11-20, 02:11:00,VALID,914.251,VALID,0,VALID,99.6353,VALID,-0.0169808,VALID,19.8357,VALID,228,VALID,0.583882,
2000-11-20, 02:12:00,VALID,914.251,VALID,0,VALID,99.6455,VALID,-0.0169808,VALID,19.8488,VALID,228,VALID,0.478252,
2000-11-20, 02:13:00,VALID,914.245,VALID,0,VALID,99.6404,VALID,0,VALID,19.8421,VALID,225,VALID,0.296007,
2000-11-20, 02:14:00,VALID,914.244,VALID,0,VALID,99.6506,VALID,0,VALID,19.8421,VALID,223,VALID,0,
2000-11-20, 02:15:01,VALID,914.245,VALID,0,VALID,99.6455,VALID,0,VALID,19.8421,VALID,210,VALID,0,
2000-11-20, 02:16:00,VALID,914.23,VALID,0,VALID,99.6404,VALID,0,VALID,19.829,VALID,206,VALID,0,
2000-11-20, 02:17:01,VALID,914.234,VALID,0,VALID,99.6493,VALID,0,VALID,19.8257,VALID,205,VALID,0,
2000-11-20, 02:18:00,VALID,914.234,VALID,0,VALID,99.6684,VALID,0.0339617,VALID,19.8227,VALID,205,VALID,0,
2000-11-20, 02:19:01,VALID,914.225,VALID,0,VALID,99.6633,VALID,0,VALID,19.8227,VALID,205,VALID,0,
2000-11-20, 02:20:01,VALID,914.232,VALID,0,VALID,99.6646,VALID,0,VALID,19.8096,VALID,198,VALID,0,
2000-11-20, 02:21:00,VALID,914.206,VALID,0,VALID,99.6684,VALID,0,VALID,19.8225,VALID,167,VALID,0,
2000-11-20, 02:22:01,VALID,914.207,VALID,0,VALID,99.6811,VALID,0,VALID,19.8324,VALID,167,VALID,0,
2000-11-20, 02:23:00,VALID,914.193,VALID,0,VALID,99.6785,VALID,0.0339617,VALID,19.8255,VALID,167,VALID,0,
2000-11-20, 02:24:00,VALID,914.19,VALID,0,VALID,99.6633,VALID,0,VALID,19.8098,VALID,165,VALID,0,
2000-11-20, 02:25:00,VALID,914.177,VALID,0,VALID,99.6556,VALID,0.0169808,VALID,19.7899,VALID,169,VALID,0,
2000-11-20, 02:26:00,VALID,914.167,VALID,0,VALID,99.6582,VALID,0,VALID,19.7807,VALID,166,VALID,0,
2000-11-20, 02:27:01,VALID,914.157,VALID,0,VALID,99.6582,VALID,0,VALID,19.7614,VALID,166,VALID,0,
2000-11-20, 02:28:00,VALID,914.161,VALID,0,VALID,99.6569,VALID,-0.0169808,VALID,19.771,VALID,166,VALID,0,
2000-11-20, 02:29:00,VALID,914.172,VALID,0,VALID,99.6455,VALID,0,VALID,19.7643,VALID,164,VALID,0,
2000-11-20, 02:30:00,VALID,914.186,VALID,0,VALID,99.6442,VALID,0,VALID,19.7447,VALID,148,VALID,0,
2000-11-20, 02:31:00,VALID,914.196,VALID,0,VALID,99.6468,VALID,0,VALID,19.7445,VALID,130,VALID,0,
2000-11-20, 02:32:01,VALID,914.209,VALID,0,VALID,99.6518,VALID,0,VALID,19.7487,VALID,130,VALID,0,
2000-11-20, 02:33:00,VALID,914.236,VALID,0,VALID,99.6391,VALID,0,VALID,19.7492,VALID,130,VALID,0,
2000-11-20, 02:34:00,VALID,914.236,VALID,0,VALID,99.6378,VALID,0,VALID,19.7318,VALID,134,VALID,0,
2000-11-20, 02:35:00,VALID,914.246,VALID,0,VALID,99.6595,VALID,0.0169808,VALID,19.7517,VALID,148,VALID,0,
2000-11-20, 02:36:00,VALID,914.243,VALID,0,VALID,99.6569,VALID,0,VALID,19.7484,VALID,160,VALID,0,
2000-11-20, 02:37:00,VALID,914.247,VALID,0,VALID,99.6671,VALID,0,VALID,19.7584,VALID,160,VALID,0,
2000-11-20, 02:38:00,VALID,914.237,VALID,0,VALID,99.648,VALID,0,VALID,19.7551,VALID,158,VALID,0,
2000-11-20, 02:39:00,VALID,914.237,VALID,0,VALID,99.6468,VALID,0,VALID,19.7253,VALID,162,VALID,0,
2000-11-20, 02:40:00,VALID,914.232,VALID,0,VALID,99.6595,VALID,0,VALID,19.732,VALID,180,VALID,0,
2000-11-20, 02:41:00,VALID,914.222,VALID,0,VALID,99.6671,VALID,0,VALID,19.7293,VALID,180,VALID,0,
2000-11-20, 02:42:00,VALID,914.226,VALID,0,VALID,99.6696,VALID,0.0169808,VALID,19.7194,VALID,180,VALID,0,
2000-11-20, 02:43:00,VALID,914.236,VALID,0,VALID,99.6735,VALID,-0.0169808,VALID,19.7126,VALID,180,VALID,0,
2000-11-20, 02:44:00,VALID,914.235,VALID,0,VALID,99.6722,VALID,0,VALID,19.7097,VALID,180,VALID,0,
2000-11-20, 02:45:01,VALID,914.247,VALID,0,VALID,99.6785,VALID,0,VALID,19.7261,VALID,180,VALID,0,
2000-11-20, 02:46:00,VALID,914.238,VALID,0,VALID,99.6735,VALID,0.0169808,VALID,19.7059,VALID,180,VALID,0,
2000-11-20, 02:47:01,VALID,914.218,VALID,0,VALID,99.6925,VALID,0.0169808,VALID,19.7129,VALID,180,VALID,0,
2000-11-20, 02:48:01,VALID,914.217,VALID,0,VALID,99.6811,VALID,-0.0509425,VALID,19.7072,VALID,180,VALID,0,
2000-11-20, 02:49:01,VALID,914.194,VALID,0,VALID,99.6798,VALID,-0.101885,VALID,19.6982,VALID,177,VALID,0,
2000-11-20, 02:50:01,VALID,914.183,VALID,0,VALID,99.6874,VALID,-0.101885,VALID,19.6985,VALID,172,VALID,0,
2000-11-20, 02:51:00,VALID,914.159,VALID,0,VALID,99.6798,VALID,-0.0849042,VALID,19.695,VALID,172,VALID,0,
2000-11-20, 02:52:01,VALID,914.148,VALID,0,VALID,99.6887,VALID,-0.101885,VALID,19.6694,VALID,185,VALID,0,
2000-11-20, 02:53:01,VALID,914.128,VALID,0,VALID,99.7014,VALID,-0.101885,VALID,19.6691,VALID,197,VALID,0,
2000-11-20, 02:54:00,VALID,914.118,VALID,0,VALID,99.7141,VALID,-0.101885,VALID,19.6562,VALID,199,VALID,0,
2000-11-20, 02:55:01,VALID,914.101,VALID,0,VALID,99.7319,VALID,-0.101885,VALID,19.6632,VALID,203,VALID,0,
2000-11-20, 02:56:00,VALID,914.084,VALID,0,VALID,99.7319,VALID,-0.101885,VALID,19.6465,VALID,196,VALID,0,
2000-11-20, 02:57:01,VALID,914.07,VALID,0,VALID,99.7103,VALID,-0.101885,VALID,19.6306,VALID,196,VALID,0,
2000-11-20, 02:58:00,VALID,914.046,VALID,0,VALID,99.7383,VALID,-0.101885,VALID,19.6368,VALID,196,VALID,0,
2000-11-20, 02:59:00,VALID,914.027,VALID,0,VALID,99.7408,VALID,-0.101885,VALID,19.6239,VALID,196,VALID,0,
2000-11-20, 03:00:00,VALID,914.012,VALID,0,VALID,99.7281,VALID,-0.101885,VALID,19.611,VALID,196,VALID,0,
2000-11-20, 03:01:00,VALID,913.995,VALID,0,VALID,99.7345,VALID,-0.0509425,VALID,19.6107,VALID,196,VALID,0,
2000-11-20, 03:02:01,VALID,913.981,VALID,0,VALID,99.7408,VALID,-0.0679233,VALID,19.6013,VALID,196,VALID,0,
2000-11-20, 03:03:01,VALID,913.966,VALID,0,VALID,99.7752,VALID,-0.0339617,VALID,19.6003,VALID,196,VALID,0,
2000-11-20, 03:04:01,VALID,913.946,VALID,0,VALID,99.7828,VALID,0.0509425,VALID,19.6189,VALID,196,VALID,0,
2000-11-20, 03:05:01,VALID,913.938,VALID,0,VALID,99.7879,VALID,0,VALID,19.6289,VALID,196,VALID,0,
2000-11-20, 03:06:01,VALID,913.933,VALID,0,VALID,99.8235,VALID,0.0169808,VALID,19.6381,VALID,196,VALID,0,
2000-11-20, 03:07:01,VALID,913.928,VALID,0,VALID,99.8146,VALID,-0.0169808,VALID,19.6711,VALID,196,VALID,0,
2000-11-20, 03:08:01,VALID,913.922,VALID,0,VALID,99.8235,VALID,0.0339617,VALID,19.6773,VALID,196,VALID,0,
2000-11-20, 03:09:00,VALID,913.912,VALID,0,VALID,99.8171,VALID,0,VALID,19.7005,VALID,196,VALID,0,
2000-11-20, 03:10:01,VALID,913.92,VALID,0,VALID,99.7981,VALID,0.0169808,VALID,19.7,VALID,196,VALID,0,
2000-11-20, 03:11:01,VALID,913.907,VALID,0,VALID,99.7879,VALID,0.0169808,VALID,19.6865,VALID,196,VALID,0,
2000-11-20, 03:12:01,VALID,913.904,VALID,0,VALID,99.7701,VALID,0,VALID,19.6577,VALID,196,VALID,0,
2000-11-20, 03:13:01,VALID,913.901,VALID,0,VALID,99.7726,VALID,0.0169808,VALID,19.6513,VALID,196,VALID,0,
2000-11-20, 03:14:01,VALID,913.902,VALID,0,VALID,99.7726,VALID,0,VALID,19.6418,VALID,194,VALID,0,
2000-11-20, 03:15:01,VALID,913.89,VALID,0,VALID,99.7459,VALID,0.0169808,VALID,19.6321,VALID,187,VALID,0,
2000-11-20, 03:16:01,VALID,913.886,VALID,0,VALID,99.7218,VALID,0,VALID,19.5938,VALID,187,VALID,0,
2000-11-20, 03:17:01,VALID,913.886,VALID,0,VALID,99.6963,VALID,0,VALID,19.5585,VALID,187,VALID,0,
2000-11-20, 03:18:01,VALID,913.881,VALID,0,VALID,99.7014,VALID,0.0509425,VALID,19.5389,VALID,185,VALID,0,
2000-11-20, 03:19:01,VALID,913.88,VALID,0,VALID,99.7281,VALID,0,VALID,19.5325,VALID,180,VALID,0,
2000-11-20, 03:20:01,VALID,913.85,VALID,0,VALID,99.7103,VALID,0.0339617,VALID,19.519,VALID,181,VALID,0,
2000-11-20, 03:21:01,VALID,913.838,VALID,0,VALID,99.7256,VALID,0,VALID,19.5158,VALID,190,VALID,0,
2000-11-20, 03:22:01,VALID,913.826,VALID,0,VALID,99.7205,VALID,0,VALID,19.4962,VALID,190,VALID,0,
2000-11-20, 03:23:01,VALID,913.811,VALID,0,VALID,99.7447,VALID,0.0339617,VALID,19.5091,VALID,190,VALID,0,
2000-11-20, 03:24:01,VALID,913.798,VALID,0,VALID,99.7485,VALID,0.0339617,VALID,19.5061,VALID,190,VALID,0,
2000-11-20, 03:25:01,VALID,913.775,VALID,0,VALID,99.7714,VALID,0,VALID,19.5262,VALID,190,VALID,0,
2000-11-20, 03:26:01,VALID,913.772,VALID,0,VALID,99.7803,VALID,0,VALID,19.5193,VALID,190,VALID,0,
2000-11-20, 03:27:01,VALID,913.775,VALID,0,VALID,99.7777,VALID,0.0169808,VALID,19.5126,VALID,189,VALID,0,
2000-11-20, 03:28:01,VALID,913.774,VALID,0,VALID,99.7866,VALID,0.0509425,VALID,19.5123,VALID,181,VALID,0,
2000-11-20, 03:29:00,VALID,913.783,VALID,0,VALID,99.7701,VALID,0.0169808,VALID,19.5029,VALID,180,VALID,0,
2000-11-20, 03:30:00,VALID,913.786,VALID,0,VALID,99.7714,VALID,0,VALID,19.4932,VALID,180,VALID,0,
2000-11-20, 03:31:00,VALID,913.793,VALID,0,VALID,99.7993,VALID,0,VALID,19.4964,VALID,180,VALID,0,
2000-11-20, 03:32:00,VALID,913.805,VALID,0,VALID,99.7866,VALID,0,VALID,19.4964,VALID,181,VALID,0,
2000-11-20, 03:33:00,VALID,913.813,VALID,0,VALID,99.8235,VALID,-0.0679233,VALID,19.5006,VALID,184,VALID,0,
2000-11-20, 03:34:00,VALID,913.812,VALID,0,VALID,99.8515,VALID,-0.101885,VALID,19.5307,VALID,185,VALID,0,
2000-11-20, 03:35:00,VALID,913.809,VALID,0,VALID,99.8337,VALID,-0.0849042,VALID,19.527,VALID,195,VALID,0,
2000-11-20, 03:36:00,VALID,913.814,VALID,0,VALID,99.8337,VALID,-0.101885,VALID,19.5237,VALID,195,VALID,0,
2000-11-20, 03:37:00,VALID,913.816,VALID,0,VALID,99.8222,VALID,-0.0849042,VALID,19.5208,VALID,195,VALID,0,
2000-11-20, 03:38:00,VALID,913.819,VALID,0,VALID,99.8121,VALID,-0.101885,VALID,19.4917,VALID,195,VALID,0,
2000-11-20, 03:39:00,VALID,913.825,VALID,0,VALID,99.7612,VALID,-0.101885,VALID,19.4208,VALID,195,VALID,0,
2000-11-20, 03:40:00,VALID,913.823,VALID,0,VALID,99.7218,VALID,-0.101885,VALID,19.3234,VALID,195,VALID,0,
2000-11-20, 03:41:00,VALID,913.824,VALID,0,VALID,99.7014,VALID,-0.101885,VALID,19.275,VALID,195,VALID,0,
2000-11-20, 03:42:00,VALID,913.822,VALID,0,VALID,99.7358,VALID,-0.101885,VALID,19.2688,VALID,195,VALID,0,
2000-11-20, 03:43:00,VALID,913.823,VALID,0,VALID,99.7917,VALID,-0.101885,VALID,19.2817,VALID,195,VALID,0,
2000-11-20, 03:44:00,VALID,913.811,VALID,0,VALID,99.8311,VALID,-0.101885,VALID,19.3075,VALID,195,VALID,0,
2000-11-20, 03:45:00,VALID,913.809,VALID,0,VALID,99.9163,VALID,-0.118866,VALID,19.3726,VALID,195,VALID,0,